This is the latest recevied weather packets stored in our database for station/object W0SS-13. If no packets are shown the sender has not sent any weather packets the latest 10 day(s).
| Time | Temp. | Humidity | Pressure | Rain* | Wind** | Luminosity | Snow |
|---|---|---|---|---|---|---|---|
| 1777872064 | 18.89° C | 50% | 1008.1 hPa | 0 mm | - | 0 W/m² | - |
| 1777871761 | 19.44° C | 50% | 1008.3 hPa | 0 mm | - | 0 W/m² | - |
| 1777871457 | 20° C | 49% | 1008.5 hPa | 0 mm | - | 0 W/m² | - |
| 1777871154 | 20° C | 49% | 1008.3 hPa | 0 mm | - | 0 W/m² | - |
| 1777870851 | 20° C | 49% | 1008.4 hPa | 0 mm | - | 0 W/m² | - |
| 1777870548 | 20.56° C | 49% | 1008.6 hPa | 0 mm | - | 0 W/m² | - |
| 1777870243 | 18.33° C | 53% | 1008.6 hPa | 0 mm | - | 0 W/m² | - |
| 1777869941 | 17.78° C | 59% | 1008.6 hPa | 0 mm | - | 0 W/m² | - |
| 1777869638 | 17.78° C | 57% | 1008.4 hPa | 0 mm | - | 0 W/m² | - |
| 1777869335 | 18.33° C | 55% | 1008.5 hPa | 0 mm | - | 0 W/m² | - |
| 1777869032 | 18.89° C | 55% | 1008.3 hPa | 0 mm | - | 0 W/m² | - |
| 1777868729 | 18.89° C | 51% | 1008.4 hPa | 0 mm | - | 0 W/m² | - |
| 1777868426 | 20° C | 51% | 1008.4 hPa | 0 mm | - | 0 W/m² | - |
| 1777868122 | 20° C | 50% | 1008.4 hPa | 0 mm | - | 0 W/m² | - |
| 1777867818 | 19.44° C | 51% | 1008.3 hPa | 0 mm | - | 0 W/m² | - |
| 1777867516 | 20° C | 51% | 1008.1 hPa | 0 mm | - | 0 W/m² | - |
| 1777867213 | 20° C | 49% | 1008.1 hPa | 0 mm | - | 0 W/m² | - |
| 1777866910 | 19.44° C | 49% | 1008.3 hPa | 0 mm | - | 0 W/m² | - |
| 1777866606 | 19.44° C | 51% | 1008.3 hPa | 0 mm | - | 0 W/m² | - |
| 1777866303 | 20° C | 50% | 1008.3 hPa | 0 mm | - | 0 W/m² | - |
| 1777866000 | 20° C | 50% | 1008.5 hPa | 0 mm | - | 0 W/m² | - |
| 1777865698 | 20° C | 48% | 1008.2 hPa | 0 mm | - | 0 W/m² | - |
| 1777865395 | 18.89° C | 49% | 1008.3 hPa | 0 mm | - | 0 W/m² | - |
| 1777865092 | 19.44° C | 55% | 1008.6 hPa | 0 mm | - | 0 W/m² | - |
| 1777864789 | 20° C | 52% | 1008.4 hPa | 0 mm | - | 0 W/m² | - |
* Rain latest hour (hover to see other rain measurements)
** Current wind speed in m/s (hover to see current wind gust speed)